User: anonymous   Login
Location: Carrières
(48.9495°N, 2.0407°E)
Time: 17:50:32
(UTC+00:00)
Language:

Transit 4A - Orbit

View from above orbital plane
View from above orbital plane
View from above satellite
View from above satellite

Ground track
Ground track

The orbit data is extracted from the following two-line orbital elements,

1 00116U 61015A   24109.89629977  .00000256  00000-0  25547-3 0  9993
2 00116  66.8123  21.7639 0068759 107.9768 252.8822 13.92022126186830
Epoch (UTC): 18 April 2024 21:30:40
Eccentricity: 0.0068759
inclination: 66.8123°
perigee height: 871 km
apogee height: 972 km
right ascension of ascending node: 21.7639°
argument of perigee: 107.9768°
revolutions per day: 13.92022126
mean anomaly at epoch: 252.8822°
orbit number at epoch: 18683

The dashed part of the orbit path shows where the satellite is in the earth's shadow,  

DLR